Location: Izdebno
(52.6670°N, 16.2170°E)
Time: 12:19:19
(UTC+02:00)

A-11 Canister half - Pass Details

Date: 22 February 2024
Orbit: 1525 x 1683 km, 47.3° (Epoch: 24 April)

Event Time Altitude Azimuth Distance (km) Brightness Sun altitude
Exits shadow 03:12:11 31° 162° (SSE) 2,455 9.9 -34.0°
Drops below altitude 10° 03:17:01 10° 141° (SE) 3,723 11.1 -33.4°
Sets 03:20:16 0° 135° (SE) 4,721 11.7 -32.9°
